User: anonymous
Location: Dover
(39.1580°N, 75.5250°W)
Time: 07:26:39
(UTC-04:00)
Language:

Cosmos 1437 Rocket - Orbit

View from above orbital plane
View from above orbital plane
View from above satellite
View from above satellite

Ground track
Ground track

The orbit data is extracted from the following two-line orbital elements,

1 13771U 83003B   14259.01094538  .00002256  00000-0  14929-3 0  1203
2 13771 081.1547 080.1616 0031781 091.9900 268.4963 15.06543504722223
Epoch (UTC): 16 September 2014 00:15:45
Eccentricity: 0.0031781
inclination: 81.1547°
perigee height: 525 km
apogee height: 569 km
right ascension of ascending node: 80.1616°
argument of perigee: 91.9900°
revolutions per day: 15.06543504
mean anomaly at epoch: 268.4963°
orbit number at epoch: 72222

The dashed part of the orbit path shows where the satellite is in the earth's shadow,  

DLR